UPS2956 KRFD-KOAK

Flight info

Callsign UPS2956
Flight time 4h 2m
Altitude 30000
Route DCT DBQ DCT ALO DCT HCT DCT KD63U DCT KU60Q DCT OAL DCT RPARK OAKES3
Aircraft A306/H-SDE3FGHIRWY/LB1

Departure

Time 2026-04-23 17:06
Airport Chicago Rockford International Airport (KRFD)

Arrival

Time 2026-04-23 21:08
Airport San Francisco Bay Oakland International Airport (KOAK)
Time Latitude Longitude Altitude Speed Heading
2026-04-23 16:42 42.19879 -89.10197 738 ft 0 kts 257°
2026-04-23 16:58 42.19879 -89.10193 738 ft 3 kts 256°
2026-04-23 16:58 42.19888 -89.10171 739 ft 4 kts 185°
2026-04-23 16:58 42.19913 -89.10177 737 ft 5 kts 156°
2026-04-23 16:58 42.19920 -89.10181 740 ft 2 kts 156°
2026-04-23 17:02 42.19887 -89.10156 737 ft 14 kts 151°
2026-04-23 17:02 42.19783 -89.10170 739 ft 10 kts 134°
2026-04-23 17:02 42.19827 -89.10012 741 ft 24 kts 57°
2026-04-23 17:02 42.19886 -89.09823 740 ft 20 kts 65°
2026-04-23 17:03 42.19944 -89.09668 741 ft 17 kts 69°
2026-04-23 17:03 42.19992 -89.09541 743 ft 13 kts 67°
2026-04-23 17:03 42.20009 -89.09445 743 ft 9 kts 69°
2026-04-23 17:03 42.20077 -89.09306 744 ft 22 kts 41°
2026-04-23 17:04 42.20219 -89.09177 742 ft 26 kts 41°
2026-04-23 17:04 42.20362 -89.09110 745 ft 21 kts 359°
2026-04-23 17:04 42.20493 -89.09105 748 ft 17 kts 11°
2026-04-23 17:04 42.20574 -89.09026 746 ft 14 kts 50°
2026-04-23 17:05 42.20580 -89.08913 745 ft 12 kts 100°
2026-04-23 17:05 42.20530 -89.08867 746 ft 8 kts 175°
2026-04-23 17:05 42.20383 -89.08876 744 ft 44 kts 185°
2026-04-23 17:05 42.19866 -89.08942 746 ft 103 kts 186°
2026-04-23 17:06 42.18972 -89.09069 743 ft 155 kts 186°
2026-04-23 17:06 42.17761 -89.09249 1024 ft 185 kts 187°
2026-04-23 17:06 42.16447 -89.09463 1678 ft 199 kts 185°
2026-04-23 17:06 42.15017 -89.09736 2116 ft 217 kts 194°
2026-04-23 17:07 42.13664 -89.10819 2406 ft 237 kts 224°
2026-04-23 17:07 42.12917 -89.12850 2887 ft 258 kts 257°
2026-04-23 17:07 42.13120 -89.15328 3493 ft 277 kts 289°
2026-04-23 17:07 42.14257 -89.17404 4574 ft 277 kts 311°
2026-04-23 17:08 42.15755 -89.19014 5570 ft 277 kts 320°
2026-04-23 17:08 42.17384 -89.20472 6306 ft 284 kts 323°
2026-04-23 17:08 42.19070 -89.21918 7123 ft 289 kts 323°
2026-04-23 17:08 42.20806 -89.23355 7888 ft 296 kts 325°
2026-04-23 17:09 42.22551 -89.24839 8703 ft 297 kts 315°
2026-04-23 17:09 42.23841 -89.27018 9211 ft 300 kts 290°
2026-04-23 17:09 42.24469 -89.29594 10346 ft 278 kts 276°
2026-04-23 17:09 42.24666 -89.32118 11331 ft 268 kts 266°
2026-04-23 17:10 42.24649 -89.34695 11727 ft 284 kts 264°
2026-04-23 17:10 42.24628 -89.37449 12027 ft 303 kts 267°
2026-04-23 17:10 42.24722 -89.40371 12304 ft 321 kts 270°
2026-04-23 17:10 42.24944 -89.43449 12578 ft 337 kts 274°
2026-04-23 17:11 42.25280 -89.46656 12851 ft 353 kts 276°
2026-04-23 17:11 42.25690 -89.49994 13119 ft 367 kts 277°
2026-04-23 17:11 42.26139 -89.53438 13440 ft 378 kts 277°
2026-04-23 17:11 42.26603 -89.56963 13906 ft 384 kts 277°
2026-04-23 17:12 42.27069 -89.60531 14401 ft 387 kts 277°
2026-04-23 17:12 42.27528 -89.64125 14937 ft 390 kts 277°
2026-04-23 17:12 42.27981 -89.67748 15488 ft 393 kts 277°
2026-04-23 17:12 42.28431 -89.71392 16024 ft 395 kts 277°
2026-04-23 17:13 42.28880 -89.75074 16553 ft 398 kts 277°
2026-04-23 17:13 42.29329 -89.78770 17116 ft 400 kts 277°
2026-04-23 17:13 42.29780 -89.82484 17671 ft 402 kts 276°
2026-04-23 17:13 42.30233 -89.86228 18133 ft 406 kts 277°
2026-04-23 17:14 42.30691 -89.90009 18548 ft 410 kts 277°
2026-04-23 17:14 42.31150 -89.93815 19026 ft 411 kts 277°
2026-04-23 17:14 42.31610 -89.97645 19378 ft 416 kts 277°
2026-04-23 17:14 42.32073 -90.01512 19826 ft 417 kts 277°
2026-04-23 17:15 42.32537 -90.05380 20309 ft 418 kts 277°
2026-04-23 17:15 42.32999 -90.09268 20707 ft 421 kts 277°
2026-04-23 17:15 42.33463 -90.13180 21136 ft 423 kts 277°
2026-04-23 17:15 42.33928 -90.17113 21519 ft 425 kts 276°
2026-04-23 17:16 42.34396 -90.21075 21905 ft 428 kts 277°
2026-04-23 17:16 42.34865 -90.25051 22293 ft 430 kts 276°
2026-04-23 17:16 42.35333 -90.29054 22666 ft 432 kts 276°
2026-04-23 17:16 42.35804 -90.33081 23004 ft 435 kts 276°
2026-04-23 17:17 42.36275 -90.37126 23371 ft 437 kts 276°
2026-04-23 17:17 42.36747 -90.41192 23670 ft 439 kts 276°
2026-04-23 17:17 42.37060 -90.43891 23854 ft 440 kts 276°
2026-04-23 17:17 42.37695 -90.49377 24251 ft 442 kts 276°
2026-04-23 17:18 42.38643 -90.57618 24812 ft 445 kts 276°
2026-04-23 17:18 42.39117 -90.61757 25104 ft 446 kts 276°
2026-04-23 17:18 42.39591 -90.65912 25381 ft 447 kts 276°
2026-04-23 17:19 42.40063 -90.70073 25656 ft 448 kts 276°
2026-04-23 17:19 42.40511 -90.74255 25928 ft 449 kts 276°
2026-04-23 17:19 42.40932 -90.78450 26217 ft 450 kts 276°
2026-04-23 17:19 42.41340 -90.82648 26467 ft 451 kts 275°
2026-04-23 17:20 42.41746 -90.86868 26703 ft 452 kts 275°
2026-04-23 17:20 42.42421 -90.93905 27087 ft 455 kts 276°
2026-04-23 17:21 42.43240 -91.02412 27543 ft 457 kts 276°
2026-04-23 17:21 42.43650 -91.06684 27799 ft 457 kts 276°
2026-04-23 17:21 42.44467 -91.15193 28473 ft 454 kts 276°
2026-04-23 17:22 42.44872 -91.19424 28837 ft 453 kts 276°
2026-04-23 17:22 42.45670 -91.27848 29504 ft 450 kts 276°
2026-04-23 17:23 42.46458 -91.36236 30064 ft 448 kts 276°
2026-04-23 17:23 42.46847 -91.40410 30273 ft 447 kts 276°
2026-04-23 17:23 42.47619 -91.48747 30669 ft 445 kts 276°
2026-04-23 17:24 42.48002 -91.52907 30866 ft 445 kts 276°
2026-04-23 17:24 42.48386 -91.57061 31035 ft 445 kts 275°
2026-04-23 17:24 42.49155 -91.65378 31433 ft 444 kts 275°
2026-04-23 17:25 42.49901 -91.73663 31852 ft 442 kts 275°
2026-04-23 17:25 42.50269 -91.77799 32047 ft 442 kts 275°
2026-04-23 17:26 42.51002 -91.86079 32313 ft 444 kts 275°
2026-04-23 17:26 42.51731 -91.94413 32519 ft 448 kts 274°
2026-04-23 17:27 42.52460 -92.02822 32666 ft 451 kts 274°
2026-04-23 17:27 42.52831 -92.07053 32768 ft 453 kts 274°
2026-04-23 17:27 42.53576 -92.15486 32781 ft 448 kts 274°
2026-04-23 17:28 42.54310 -92.23870 32749 ft 447 kts 274°
2026-04-23 17:28 42.55026 -92.32253 32751 ft 449 kts 273°
2026-04-23 17:29 42.55257 -92.40680 32746 ft 443 kts 260°
2026-04-23 17:30 42.53155 -92.52715 32749 ft 438 kts 252°
2026-04-23 17:30 42.50610 -92.64692 32738 ft 439 kts 251°
2026-04-23 17:31 42.48955 -92.72666 32738 ft 440 kts 252°
2026-04-23 17:31 42.47300 -92.80640 32718 ft 437 kts 251°
2026-04-23 17:32 42.45680 -92.88550 32721 ft 439 kts 252°
2026-04-23 17:32 42.44031 -92.96520 32735 ft 440 kts 252°
2026-04-23 17:33 42.42359 -93.04545 32738 ft 441 kts 251°
2026-04-23 17:33 42.40707 -93.12455 32743 ft 438 kts 251°
2026-04-23 17:34 42.39038 -93.20371 32747 ft 438 kts 251°
2026-04-23 17:35 42.36523 -93.32240 32742 ft 437 kts 251°
2026-04-23 17:35 42.33996 -93.44179 32737 ft 440 kts 251°
2026-04-23 17:36 42.32304 -93.52111 32721 ft 439 kts 251°
2026-04-23 17:36 42.30608 -93.60030 32719 ft 438 kts 251°
2026-04-23 17:37 42.28910 -93.67936 32712 ft 438 kts 251°
2026-04-23 17:38 42.26359 -93.79716 32697 ft 437 kts 250°
2026-04-23 17:38 42.24623 -93.87622 32700 ft 439 kts 250°
2026-04-23 17:39 42.22909 -93.95539 32701 ft 439 kts 250°
2026-04-23 17:39 42.21200 -94.03375 32704 ft 440 kts 250°
2026-04-23 17:40 42.19464 -94.11288 32713 ft 440 kts 250°
2026-04-23 17:40 42.17730 -94.19215 32713 ft 440 kts 250°
2026-04-23 17:41 42.15981 -94.27135 32706 ft 442 kts 250°
2026-04-23 17:41 42.13336 -94.39043 32705 ft 442 kts 250°
2026-04-23 17:42 42.10680 -94.50941 32694 ft 442 kts 250°
2026-04-23 17:43 42.08902 -94.58875 32722 ft 443 kts 250°
2026-04-23 17:43 42.07124 -94.66783 32690 ft 440 kts 250°
2026-04-23 17:44 42.05345 -94.74661 32673 ft 440 kts 250°
2026-04-23 17:44 42.02663 -94.86467 32672 ft 440 kts 249°
2026-04-23 17:45 41.99974 -94.98251 32678 ft 439 kts 249°
2026-04-23 17:46 41.97278 -95.10009 32646 ft 438 kts 249°
2026-04-23 17:46 41.95479 -95.17837 32644 ft 439 kts 249°
2026-04-23 17:47 41.93668 -95.25662 32647 ft 438 kts 249°
2026-04-23 17:48 41.90946 -95.37387 32653 ft 438 kts 249°
2026-04-23 17:48 41.89135 -95.45166 32644 ft 436 kts 249°
2026-04-23 17:49 41.87316 -95.52932 32637 ft 436 kts 249°
2026-04-23 17:49 41.85495 -95.60691 32630 ft 436 kts 249°
2026-04-23 17:50 41.83667 -95.68447 32599 ft 436 kts 249°
2026-04-23 17:50 41.80942 -95.79974 32589 ft 432 kts 249°
2026-04-23 17:51 41.79119 -95.87648 32596 ft 432 kts 249°
2026-04-23 17:52 41.76372 -95.99142 32598 ft 432 kts 249°
2026-04-23 17:52 41.73617 -96.10624 32623 ft 431 kts 248°
2026-04-23 17:53 41.70947 -96.22016 32594 ft 426 kts 249°
2026-04-23 17:54 41.69128 -96.29558 32599 ft 425 kts 248°
2026-04-23 17:54 41.66327 -96.40807 32593 ft 425 kts 248°
2026-04-23 17:55 41.63564 -96.52064 32597 ft 422 kts 248°
2026-04-23 17:56 41.61744 -96.59504 32593 ft 420 kts 247°
2026-04-23 17:56 41.59012 -96.70620 32597 ft 420 kts 247°
2026-04-23 17:57 41.57183 -96.78026 32597 ft 420 kts 247°
2026-04-23 17:58 41.54429 -96.89118 32605 ft 418 kts 247°
2026-04-23 17:58 41.52593 -96.96477 32602 ft 418 kts 247°
2026-04-23 17:59 41.50758 -97.03825 32606 ft 418 kts 247°
2026-04-23 17:59 41.48918 -97.11178 32601 ft 417 kts 247°
2026-04-23 18:00 41.47073 -97.18516 32633 ft 417 kts 247°
2026-04-23 18:00 41.45225 -97.25847 32628 ft 417 kts 247°
2026-04-23 18:01 41.43372 -97.33172 32629 ft 417 kts 246°
2026-04-23 18:01 41.41511 -97.40507 32627 ft 417 kts 246°
2026-04-23 18:02 41.39963 -97.46591 32627 ft 417 kts 246°
2026-04-23 18:02 41.37780 -97.55144 32608 ft 417 kts 246°
2026-04-23 18:03 41.35908 -97.62457 32611 ft 417 kts 246°
2026-04-23 18:03 41.34034 -97.69746 32613 ft 416 kts 246°
2026-04-23 18:04 41.32477 -97.75789 32617 ft 416 kts 246°
2026-04-23 18:04 41.30597 -97.83055 32617 ft 416 kts 246°
2026-04-23 18:05 41.28714 -97.90329 32606 ft 416 kts 246°
2026-04-23 18:05 41.26829 -97.97598 32651 ft 416 kts 246°
2026-04-23 18:06 41.24937 -98.04850 32622 ft 415 kts 246°
2026-04-23 18:06 41.23043 -98.12091 32633 ft 415 kts 246°
2026-04-23 18:07 41.21146 -98.19327 32641 ft 415 kts 246°
2026-04-23 18:07 41.19245 -98.26566 32649 ft 415 kts 246°
2026-04-23 18:08 41.17342 -98.33799 32653 ft 415 kts 246°
2026-04-23 18:08 41.15433 -98.41017 32654 ft 413 kts 246°
2026-04-23 18:09 41.13532 -98.48177 32630 ft 412 kts 246°
2026-04-23 18:09 41.11627 -98.55340 32634 ft 412 kts 246°
2026-04-23 18:10 41.09715 -98.62504 32636 ft 412 kts 246°
2026-04-23 18:10 41.07804 -98.69659 32639 ft 412 kts 246°
2026-04-23 18:11 41.05886 -98.76797 32645 ft 410 kts 245°
2026-04-23 18:11 41.03976 -98.83892 32639 ft 408 kts 245°
2026-04-23 18:12 41.02064 -98.90973 32640 ft 408 kts 245°
2026-04-23 18:12 41.00147 -98.98048 32641 ft 408 kts 245°
2026-04-23 18:13 40.98228 -99.05120 32640 ft 408 kts 245°
2026-04-23 18:13 40.96305 -99.12184 32654 ft 407 kts 246°
2026-04-23 18:14 40.94391 -99.19199 32646 ft 404 kts 245°
2026-04-23 18:14 40.92477 -99.26191 32648 ft 405 kts 245°
2026-04-23 18:15 40.90556 -99.33184 32648 ft 404 kts 245°
2026-04-23 18:15 40.88635 -99.40170 32667 ft 404 kts 245°
2026-04-23 18:16 40.86712 -99.47141 32730 ft 404 kts 245°
2026-04-23 18:16 40.84795 -99.54079 32702 ft 400 kts 245°
2026-04-23 18:17 40.81936 -99.64365 32723 ft 399 kts 245°
2026-04-23 18:17 40.80019 -99.71242 32728 ft 399 kts 245°
2026-04-23 18:18 40.78098 -99.78113 32729 ft 399 kts 245°
2026-04-23 18:18 40.76171 -99.84985 32699 ft 399 kts 245°
2026-04-23 18:19 40.74264 -99.91790 32663 ft 394 kts 245°
2026-04-23 18:19 40.72362 -99.98558 32665 ft 393 kts 245°
2026-04-23 18:20 40.70450 -100.05313 32666 ft 393 kts 245°
2026-04-23 18:20 40.68535 -100.12066 32637 ft 393 kts 245°
2026-04-23 18:21 40.66622 -100.18811 32668 ft 393 kts 245°
2026-04-23 18:21 40.64703 -100.25540 32668 ft 391 kts 245°
2026-04-23 18:22 40.62793 -100.32221 32672 ft 389 kts 245°
2026-04-23 18:22 40.60888 -100.38888 32675 ft 389 kts 245°
2026-04-23 18:23 40.58020 -100.48875 32681 ft 389 kts 245°
2026-04-23 18:24 40.55147 -100.58855 32720 ft 389 kts 245°
2026-04-23 18:25 40.52271 -100.68812 32702 ft 388 kts 245°
2026-04-23 18:25 40.50349 -100.75428 32693 ft 388 kts 245°
2026-04-23 18:26 40.48415 -100.82057 32692 ft 388 kts 245°
2026-04-23 18:26 40.46549 -100.88711 32683 ft 390 kts 249°
2026-04-23 18:27 40.45617 -100.95746 32692 ft 400 kts 261°
2026-04-23 18:27 40.45666 -101.03144 32688 ft 404 kts 264°
2026-04-23 18:28 40.45907 -101.10467 32682 ft 404 kts 265°
2026-04-23 18:28 40.46162 -101.17896 32691 ft 405 kts 265°
2026-04-23 18:29 40.46386 -101.25278 32711 ft 404 kts 264°
2026-04-23 18:29 40.46595 -101.32656 32737 ft 405 kts 265°
2026-04-23 18:30 40.46796 -101.40005 32751 ft 406 kts 264°
2026-04-23 18:30 40.46991 -101.47406 32766 ft 406 kts 264°
2026-04-23 18:31 40.47182 -101.54813 32777 ft 406 kts 264°
2026-04-23 18:31 40.47369 -101.62222 32775 ft 406 kts 264°
2026-04-23 18:32 40.47552 -101.69624 32788 ft 406 kts 265°
2026-04-23 18:32 40.47728 -101.77055 32767 ft 408 kts 265°
2026-04-23 18:33 40.47897 -101.84518 32748 ft 409 kts 265°
2026-04-23 18:33 40.48066 -101.91983 32730 ft 409 kts 265°
2026-04-23 18:34 40.48234 -101.99453 32714 ft 409 kts 265°
2026-04-23 18:34 40.48397 -102.06916 32703 ft 409 kts 265°
2026-04-23 18:35 40.48619 -102.14444 32699 ft 414 kts 266°
2026-04-23 18:35 40.48759 -102.21993 32691 ft 415 kts 265°
2026-04-23 18:36 40.48867 -102.29590 32691 ft 417 kts 265°
2026-04-23 18:36 40.48992 -102.37213 32695 ft 417 kts 265°
2026-04-23 18:37 40.49167 -102.44838 32692 ft 420 kts 267°
2026-04-23 18:37 40.49373 -102.52549 32691 ft 423 kts 265°
2026-04-23 18:38 40.49440 -102.60282 32687 ft 423 kts 265°
2026-04-23 18:38 40.49526 -102.68010 32695 ft 423 kts 265°
2026-04-23 18:39 40.49637 -102.75753 32693 ft 424 kts 265°
2026-04-23 18:39 40.49752 -102.83503 32704 ft 426 kts 266°
2026-04-23 18:40 40.49865 -102.91309 32706 ft 428 kts 266°
2026-04-23 18:40 40.49971 -102.99124 32708 ft 428 kts 266°
2026-04-23 18:41 40.50069 -103.06939 32718 ft 428 kts 266°
2026-04-23 18:41 40.50167 -103.14761 32815 ft 428 kts 267°
2026-04-23 18:42 40.50255 -103.22607 32813 ft 431 kts 267°
2026-04-23 18:42 40.50337 -103.30489 32813 ft 431 kts 267°
2026-04-23 18:43 40.50420 -103.38371 32805 ft 431 kts 267°
2026-04-23 18:43 40.50496 -103.46250 32787 ft 432 kts 267°
2026-04-23 18:44 40.50568 -103.54141 32769 ft 433 kts 268°
2026-04-23 18:44 40.50637 -103.62065 32787 ft 434 kts 268°
2026-04-23 18:45 40.50686 -103.70008 32800 ft 435 kts 268°
2026-04-23 18:45 40.50734 -103.77951 32807 ft 434 kts 268°
2026-04-23 18:46 40.50780 -103.85890 32807 ft 434 kts 268°
2026-04-23 18:46 40.50826 -103.93848 32795 ft 437 kts 268°
2026-04-23 18:47 40.50859 -104.00488 32772 ft 438 kts 268°
2026-04-23 18:47 40.50893 -104.09790 32708 ft 438 kts 268°
2026-04-23 18:48 40.50917 -104.17790 32704 ft 438 kts 268°
2026-04-23 18:48 40.50932 -104.24497 32694 ft 438 kts 269°
2026-04-23 18:49 40.50964 -104.32511 32703 ft 439 kts 269°
2026-04-23 18:49 40.50967 -104.40522 32697 ft 438 kts 269°
2026-04-23 18:50 40.50965 -104.47184 32695 ft 439 kts 269°
2026-04-23 18:50 40.50962 -104.56554 32704 ft 439 kts 269°
2026-04-23 18:51 40.50956 -104.64570 32710 ft 439 kts 269°
2026-04-23 18:51 40.50944 -104.72592 32699 ft 439 kts 269°
2026-04-23 18:52 40.50926 -104.80608 32699 ft 439 kts 269°
2026-04-23 18:52 40.50903 -104.88625 32700 ft 439 kts 269°
2026-04-23 18:53 40.50872 -104.96639 32693 ft 438 kts 269°
2026-04-23 18:53 40.50855 -105.00639 32824 ft 437 kts 269°
2026-04-23 18:53 40.50838 -105.04640 32826 ft 437 kts 269°
2026-04-23 18:54 40.50801 -105.12620 32810 ft 437 kts 269°
2026-04-23 18:54 40.50756 -105.20606 32791 ft 437 kts 269°
2026-04-23 18:55 40.50713 -105.28587 32771 ft 437 kts 269°
2026-04-23 18:55 40.50652 -105.36536 32752 ft 434 kts 270°
2026-04-23 18:56 40.50597 -105.43119 32738 ft 433 kts 269°
2026-04-23 18:56 40.50522 -105.52308 32758 ft 433 kts 270°
2026-04-23 18:57 40.50451 -105.60221 32752 ft 433 kts 270°
2026-04-23 18:57 40.50381 -105.68124 32793 ft 430 kts 270°
2026-04-23 18:58 40.50330 -105.75873 32772 ft 420 kts 269°
2026-04-23 18:58 40.50218 -105.83562 32816 ft 424 kts 269°
2026-04-23 18:59 40.50148 -105.91281 32812 ft 419 kts 270°
2026-04-23 18:59 40.50007 -105.98940 32835 ft 422 kts 266°
2026-04-23 19:00 40.49295 -106.06657 32846 ft 430 kts 264°
2026-04-23 19:00 40.48469 -106.14488 32847 ft 435 kts 263°
2026-04-23 19:01 40.47598 -106.22358 32857 ft 435 kts 263°
2026-04-23 19:01 40.46732 -106.30227 32858 ft 435 kts 263°
2026-04-23 19:02 40.45867 -106.38086 32872 ft 434 kts 263°
2026-04-23 19:02 40.45006 -106.45892 32891 ft 431 kts 263°
2026-04-23 19:03 40.44138 -106.53674 32926 ft 431 kts 263°
2026-04-23 19:03 40.43259 -106.61456 32947 ft 431 kts 263°
2026-04-23 19:04 40.42381 -106.69234 32969 ft 430 kts 263°
2026-04-23 19:04 40.41502 -106.77033 32990 ft 435 kts 263°
2026-04-23 19:05 40.40613 -106.84907 32991 ft 437 kts 263°
2026-04-23 19:05 40.39703 -106.92776 32962 ft 437 kts 263°
2026-04-23 19:06 40.38791 -107.00650 32978 ft 436 kts 263°
2026-04-23 19:06 40.37877 -107.08518 32997 ft 437 kts 263°
2026-04-23 19:07 40.36948 -107.16407 33008 ft 438 kts 263°
2026-04-23 19:07 40.36012 -107.24303 33008 ft 438 kts 263°
2026-04-23 19:08 40.35082 -107.32193 32995 ft 438 kts 263°
2026-04-23 19:08 40.34139 -107.40076 32972 ft 438 kts 263°
2026-04-23 19:09 40.33198 -107.47958 32992 ft 437 kts 263°
2026-04-23 19:09 40.32253 -107.55825 32987 ft 437 kts 263°
2026-04-23 19:10 40.31305 -107.63689 32977 ft 437 kts 263°
2026-04-23 19:10 40.30344 -107.71546 32964 ft 437 kts 263°
2026-04-23 19:11 40.29379 -107.79395 32942 ft 435 kts 263°
2026-04-23 19:11 40.28412 -107.87189 32917 ft 433 kts 263°
2026-04-23 19:12 40.27614 -107.93649 32915 ft 432 kts 263°
2026-04-23 19:12 40.26484 -108.02726 32922 ft 432 kts 263°
2026-04-23 19:13 40.25501 -108.10493 32918 ft 433 kts 263°
2026-04-23 19:13 40.24530 -108.18208 32919 ft 432 kts 263°
2026-04-23 19:14 40.23539 -108.26021 32927 ft 433 kts 263°
2026-04-23 19:14 40.22551 -108.33783 32921 ft 432 kts 263°
2026-04-23 19:15 40.21553 -108.41530 32924 ft 432 kts 263°
2026-04-23 19:15 40.20557 -108.49268 32922 ft 430 kts 263°
2026-04-23 19:16 40.19564 -108.56958 32922 ft 428 kts 263°
2026-04-23 19:16 40.18558 -108.64587 32928 ft 428 kts 263°
2026-04-23 19:17 40.17040 -108.76105 32935 ft 428 kts 263°
2026-04-23 19:17 40.16023 -108.83813 32932 ft 425 kts 263°
2026-04-23 19:18 40.15016 -108.91412 32938 ft 424 kts 263°
2026-04-23 19:18 40.14004 -108.98999 32942 ft 424 kts 263°
2026-04-23 19:19 40.12489 -109.10326 32939 ft 424 kts 263°
2026-04-23 19:20 40.10946 -109.21669 32938 ft 421 kts 263°
2026-04-23 19:20 40.09908 -109.29192 32941 ft 421 kts 263°
2026-04-23 19:21 40.08354 -109.40539 32927 ft 421 kts 263°
2026-04-23 19:22 40.07317 -109.48070 32934 ft 421 kts 263°
2026-04-23 19:22 40.05756 -109.59337 32931 ft 420 kts 263°
2026-04-23 19:23 40.04704 -109.66843 32931 ft 420 kts 263°
2026-04-23 19:24 40.03115 -109.78097 32931 ft 420 kts 263°
2026-04-23 19:24 40.01534 -109.89329 32936 ft 419 kts 262°
2026-04-23 19:25 39.99085 -110.04193 32943 ft 421 kts 258°
2026-04-23 19:26 39.96702 -110.15217 32950 ft 421 kts 257°
2026-04-23 19:27 39.92677 -110.33518 32980 ft 420 kts 257°
2026-04-23 19:28 39.89711 -110.46915 32998 ft 420 kts 257°
2026-04-23 19:29 39.87013 -110.59047 33013 ft 419 kts 257°
2026-04-23 19:30 39.84838 -110.68787 33041 ft 419 kts 257°
2026-04-23 19:31 39.82385 -110.79708 33053 ft 419 kts 256°
2026-04-23 19:31 39.80746 -110.86988 33053 ft 419 kts 256°
2026-04-23 19:32 39.79104 -110.94260 33054 ft 419 kts 256°
2026-04-23 19:32 39.77445 -111.01534 33066 ft 420 kts 256°
2026-04-23 19:33 39.75790 -111.08796 33066 ft 419 kts 256°
2026-04-23 19:33 39.73300 -111.19701 33071 ft 421 kts 256°
2026-04-23 19:34 39.71623 -111.27006 33069 ft 422 kts 256°
2026-04-23 19:35 39.69101 -111.37960 33065 ft 422 kts 255°
2026-04-23 19:35 39.67411 -111.45251 33067 ft 422 kts 255°
2026-04-23 19:36 39.65722 -111.52539 33072 ft 422 kts 255°
2026-04-23 19:36 39.64026 -111.59819 33065 ft 422 kts 255°
2026-04-23 19:37 39.62325 -111.67102 33063 ft 422 kts 255°
2026-04-23 19:37 39.60622 -111.74378 33061 ft 422 kts 255°
2026-04-23 19:38 39.58911 -111.81658 33061 ft 422 kts 255°
2026-04-23 19:38 39.57197 -111.88933 33060 ft 422 kts 255°
2026-04-23 19:39 39.55488 -111.96163 33037 ft 422 kts 255°
2026-04-23 19:39 39.53764 -112.03438 33048 ft 422 kts 255°
2026-04-23 19:40 39.52033 -112.10701 33032 ft 422 kts 255°
2026-04-23 19:40 39.50284 -112.18012 33041 ft 423 kts 255°
2026-04-23 19:41 39.48557 -112.25233 33041 ft 423 kts 255°
2026-04-23 19:41 39.46811 -112.32511 33043 ft 423 kts 255°
2026-04-23 19:42 39.45059 -112.39776 33035 ft 423 kts 255°
2026-04-23 19:42 39.43302 -112.47046 33021 ft 423 kts 255°
2026-04-23 19:43 39.41542 -112.54312 33109 ft 424 kts 255°
2026-04-23 19:43 39.39773 -112.61588 33109 ft 424 kts 254°
2026-04-23 19:44 39.38004 -112.68858 33093 ft 424 kts 254°
2026-04-23 19:44 39.36226 -112.76123 33023 ft 424 kts 254°
2026-04-23 19:45 39.34441 -112.83387 33023 ft 424 kts 254°
2026-04-23 19:45 39.32655 -112.90647 33021 ft 424 kts 254°
2026-04-23 19:46 39.30862 -112.97904 33020 ft 424 kts 254°
2026-04-23 19:46 39.29069 -113.05157 32980 ft 424 kts 254°
2026-04-23 19:46 39.28204 -113.08798 32794 ft 424 kts 255°
2026-04-23 19:47 39.27389 -113.12462 32429 ft 425 kts 256°
2026-04-23 19:47 39.26599 -113.16144 31918 ft 427 kts 256°
2026-04-23 19:47 39.25818 -113.19851 31279 ft 431 kts 256°
2026-04-23 19:47 39.25028 -113.23595 30700 ft 435 kts 256°
2026-04-23 19:48 39.24249 -113.27385 30367 ft 439 kts 257°
2026-04-23 19:48 39.23524 -113.31210 30575 ft 437 kts 258°
2026-04-23 19:48 39.22903 -113.34994 31264 ft 424 kts 260°
2026-04-23 19:48 39.22427 -113.38679 32074 ft 410 kts 263°
2026-04-23 19:49 39.22147 -113.42300 32551 ft 405 kts 267°
2026-04-23 19:49 39.22092 -113.45952 32440 ft 412 kts 271°
2026-04-23 19:49 39.22265 -113.49698 32074 ft 424 kts 275°
2026-04-23 19:49 39.22664 -113.53496 31709 ft 430 kts 279°
2026-04-23 19:50 39.23291 -113.57276 31475 ft 433 kts 283°
2026-04-23 19:50 39.25299 -113.64607 31788 ft 431 kts 292°
2026-04-23 19:50 39.26605 -113.68046 32366 ft 423 kts 296°
2026-04-23 19:51 39.28068 -113.71309 32873 ft 418 kts 299°
2026-04-23 19:51 39.29680 -113.74429 33094 ft 419 kts 302°
2026-04-23 19:51 39.31445 -113.77457 32983 ft 427 kts 305°
2026-04-23 19:51 39.33333 -113.80445 32729 ft 432 kts 307°
2026-04-23 19:52 39.35278 -113.83417 32381 ft 433 kts 308°
2026-04-23 19:52 39.37251 -113.86361 31926 ft 435 kts 308°
2026-04-23 19:52 39.39269 -113.89287 31406 ft 437 kts 310°
2026-04-23 19:52 39.41361 -113.92166 30964 ft 441 kts 312°
2026-04-23 19:53 39.43548 -113.94966 30826 ft 444 kts 314°
2026-04-23 19:53 39.45821 -113.97652 31244 ft 439 kts 316°
2026-04-23 19:53 39.48126 -114.00148 32046 ft 425 kts 318°
2026-04-23 19:53 39.50442 -114.02443 32710 ft 416 kts 320°
2026-04-23 19:54 39.52827 -114.04599 32792 ft 421 kts 322°
2026-04-23 19:54 39.55335 -114.06675 32417 ft 436 kts 324°
2026-04-23 19:54 39.57978 -114.08680 31977 ft 443 kts 327°
2026-04-23 19:54 39.60713 -114.10565 31664 ft 447 kts 330°
2026-04-23 19:55 39.63527 -114.12298 31576 ft 448 kts 332°
2026-04-23 19:55 39.66400 -114.13862 31877 ft 446 kts 335°
2026-04-23 19:55 39.69297 -114.15225 32434 ft 439 kts 337°
2026-04-23 19:55 39.72192 -114.16390 32942 ft 434 kts 339°
2026-04-23 19:56 39.75117 -114.17415 33031 ft 438 kts 341°
2026-04-23 19:56 39.78116 -114.18324 32803 ft 448 kts 343°
2026-04-23 19:56 39.81203 -114.19112 32524 ft 454 kts 345°
2026-04-23 19:56 39.84322 -114.19745 32174 ft 455 kts 348°
2026-04-23 19:57 39.87481 -114.20176 31829 ft 457 kts 351°
2026-04-23 19:57 39.90666 -114.20381 31583 ft 460 kts 354°
2026-04-23 19:57 39.93868 -114.20366 31667 ft 461 kts 357°
2026-04-23 19:57 39.97054 -114.20152 32133 ft 455 kts 359°
2026-04-23 19:58 40.00184 -114.19762 32702 ft 449 kts
2026-04-23 19:58 40.03279 -114.19196 32963 ft 450 kts
2026-04-23 19:58 40.06387 -114.18455 32848 ft 460 kts
2026-04-23 19:58 40.09534 -114.17545 32543 ft 468 kts
2026-04-23 19:59 40.12730 -114.16927 32316 ft 459 kts 355°
2026-04-23 19:59 40.15834 -114.17504 32452 ft 446 kts 338°
2026-04-23 19:59 40.18592 -114.19203 32781 ft 434 kts 322°
2026-04-23 19:59 40.20798 -114.21820 33025 ft 426 kts 306°
2026-04-23 20:00 40.22292 -114.25064 33057 ft 410 kts 292°
2026-04-23 20:00 40.24323 -114.31885 33061 ft 398 kts 284°
2026-04-23 20:01 40.24961 -114.39113 33035 ft 407 kts 268°
2026-04-23 20:01 40.23701 -114.46411 33062 ft 420 kts 250°
2026-04-23 20:02 40.20811 -114.53187 33068 ft 430 kts 242°
2026-04-23 20:02 40.17684 -114.59853 33064 ft 430 kts 242°
2026-04-23 20:03 40.14569 -114.66531 33071 ft 430 kts 242°
2026-04-23 20:03 40.11464 -114.73204 33063 ft 430 kts 242°
2026-04-23 20:04 40.08358 -114.79873 33065 ft 430 kts 242°
2026-04-23 20:04 40.05246 -114.86541 33067 ft 430 kts 242°
2026-04-23 20:05 40.02633 -114.92127 33069 ft 430 kts 242°
2026-04-23 20:05 39.99010 -114.99860 33068 ft 430 kts 242°
2026-04-23 20:06 39.95887 -115.06511 33074 ft 430 kts 242°
2026-04-23 20:06 39.92759 -115.13159 33074 ft 430 kts 242°
2026-04-23 20:07 39.89627 -115.19800 33081 ft 430 kts 242°
2026-04-23 20:07 39.86487 -115.26444 33079 ft 431 kts 242°
2026-04-23 20:08 39.83348 -115.33073 33064 ft 430 kts 242°
2026-04-23 20:08 39.80205 -115.39696 33078 ft 431 kts 242°
2026-04-23 20:09 39.77056 -115.46320 33079 ft 431 kts 242°
2026-04-23 20:09 39.73902 -115.52934 33084 ft 431 kts 241°
2026-04-23 20:10 39.71277 -115.58428 33080 ft 430 kts 241°
2026-04-23 20:10 39.68115 -115.65034 33075 ft 431 kts 241°
2026-04-23 20:11 39.64951 -115.71635 33069 ft 431 kts 241°
2026-04-23 20:11 39.61782 -115.78233 33068 ft 431 kts 241°
2026-04-23 20:12 39.58609 -115.84829 33073 ft 431 kts 241°
2026-04-23 20:12 39.55429 -115.91418 33072 ft 431 kts 241°
2026-04-23 20:13 39.52247 -115.97999 33072 ft 431 kts 242°
2026-04-23 20:13 39.49065 -116.04564 33063 ft 430 kts 241°
2026-04-23 20:14 39.45877 -116.11127 33066 ft 430 kts 241°
2026-04-23 20:14 39.42690 -116.17678 33073 ft 430 kts 241°
2026-04-23 20:15 39.39499 -116.24228 33070 ft 430 kts 241°
2026-04-23 20:15 39.36304 -116.30768 33072 ft 430 kts 242°
2026-04-23 20:16 39.33111 -116.37292 33068 ft 429 kts 242°
2026-04-23 20:16 39.29913 -116.43809 33069 ft 429 kts 242°
2026-04-23 20:17 39.26713 -116.50317 33068 ft 429 kts 242°
2026-04-23 20:17 39.23512 -116.56817 33050 ft 429 kts 242°
2026-04-23 20:18 39.20316 -116.63296 33068 ft 427 kts 242°
2026-04-23 20:18 39.17125 -116.69749 33078 ft 427 kts 242°
2026-04-23 20:19 39.13932 -116.76194 33082 ft 427 kts 242°
2026-04-23 20:19 39.10735 -116.82630 33077 ft 427 kts 242°
2026-04-23 20:20 39.07535 -116.89063 33070 ft 426 kts 242°
2026-04-23 20:20 39.04340 -116.95473 33077 ft 425 kts 242°
2026-04-23 20:21 39.01141 -117.01874 33069 ft 425 kts 242°
2026-04-23 20:21 38.97943 -117.08263 33064 ft 425 kts 242°
2026-04-23 20:22 38.94742 -117.14649 33067 ft 425 kts 242°
2026-04-23 20:22 38.91538 -117.21024 33065 ft 424 kts 242°
2026-04-23 20:23 38.88344 -117.27370 33071 ft 423 kts 242°
2026-04-23 20:23 38.85142 -117.33711 33065 ft 423 kts 242°
2026-04-23 20:24 38.81946 -117.40033 33071 ft 422 kts 242°
2026-04-23 20:24 38.78760 -117.46323 33073 ft 420 kts 242°
2026-04-23 20:25 38.75579 -117.52595 33078 ft 419 kts 242°
2026-04-23 20:25 38.72399 -117.58841 33071 ft 418 kts 242°
2026-04-23 20:26 38.69227 -117.65080 33078 ft 418 kts 242°
2026-04-23 20:26 38.66045 -117.71309 33070 ft 418 kts 242°
2026-04-23 20:27 38.62861 -117.77532 33083 ft 418 kts 242°
2026-04-23 20:27 38.59673 -117.83756 33084 ft 418 kts 242°
2026-04-23 20:28 38.56484 -117.89967 33082 ft 418 kts 242°
2026-04-23 20:28 38.53289 -117.96180 33080 ft 418 kts 242°
2026-04-23 20:29 38.50090 -118.02383 33079 ft 419 kts 242°
2026-04-23 20:29 38.46887 -118.08586 33078 ft 418 kts 242°
2026-04-23 20:30 38.43690 -118.14766 33084 ft 417 kts 242°
2026-04-23 20:30 38.38907 -118.23988 33083 ft 413 kts 242°
2026-04-23 20:31 38.35739 -118.30080 33085 ft 412 kts 242°
2026-04-23 20:31 38.32568 -118.36171 33087 ft 413 kts 242°
2026-04-23 20:32 38.29394 -118.42254 33087 ft 412 kts 242°
2026-04-23 20:32 38.26219 -118.48324 33085 ft 412 kts 242°
2026-04-23 20:33 38.23043 -118.54387 33085 ft 412 kts 242°
2026-04-23 20:33 38.19864 -118.60451 33077 ft 412 kts 242°
2026-04-23 20:34 38.16685 -118.66501 33033 ft 412 kts 242°
2026-04-23 20:34 38.13609 -118.72605 33066 ft 406 kts 247°
2026-04-23 20:35 38.11719 -118.79200 33065 ft 398 kts 261°
2026-04-23 20:35 38.10703 -118.86094 33065 ft 397 kts 262°
2026-04-23 20:36 38.09721 -118.93003 33064 ft 398 kts 262°
2026-04-23 20:36 38.08723 -118.99910 33069 ft 398 kts 262°
2026-04-23 20:37 38.07713 -119.06860 33070 ft 398 kts 262°
2026-04-23 20:37 38.06712 -119.13711 33074 ft 398 kts 262°
2026-04-23 20:38 38.05699 -119.20613 33076 ft 398 kts 262°
2026-04-23 20:38 38.04684 -119.27507 33074 ft 398 kts 261°
2026-04-23 20:39 38.03657 -119.34410 33076 ft 398 kts 261°
2026-04-23 20:39 38.02629 -119.41322 33084 ft 399 kts 261°
2026-04-23 20:40 38.01600 -119.48215 32978 ft 393 kts 261°
2026-04-23 20:40 38.01096 -119.51568 32735 ft 381 kts 261°
2026-04-23 20:40 38.00605 -119.54827 32440 ft 374 kts 261°
2026-04-23 20:41 38.00120 -119.58067 32173 ft 374 kts 261°
2026-04-23 20:41 37.99631 -119.61303 31932 ft 374 kts 261°
2026-04-23 20:41 37.99136 -119.64539 31673 ft 375 kts 262°
2026-04-23 20:41 37.98647 -119.67774 31419 ft 373 kts 262°
2026-04-23 20:42 37.98165 -119.71005 31186 ft 373 kts 262°
2026-04-23 20:42 37.97671 -119.74230 30944 ft 373 kts 261°
2026-04-23 20:42 37.97171 -119.77445 30697 ft 370 kts 262°
2026-04-23 20:42 37.96678 -119.80645 30456 ft 371 kts 262°
2026-04-23 20:43 37.96194 -119.83867 30210 ft 374 kts 261°
2026-04-23 20:43 37.95702 -119.87094 29933 ft 372 kts 262°
2026-04-23 20:43 37.95194 -119.90315 29649 ft 373 kts 261°
2026-04-23 20:43 37.94686 -119.93540 29375 ft 372 kts 261°
2026-04-23 20:44 37.94183 -119.96755 29103 ft 372 kts 261°
2026-04-23 20:44 37.93678 -119.99980 28858 ft 373 kts 261°
2026-04-23 20:44 37.93172 -120.03197 28573 ft 373 kts 261°
2026-04-23 20:44 37.92673 -120.06412 28306 ft 372 kts 261°
2026-04-23 20:45 37.92175 -120.09612 28035 ft 370 kts 261°
2026-04-23 20:45 37.91660 -120.12819 27763 ft 372 kts 261°
2026-04-23 20:45 37.91159 -120.16033 27503 ft 371 kts 261°
2026-04-23 20:45 37.90652 -120.19245 27243 ft 374 kts 261°
2026-04-23 20:46 37.90146 -120.22475 26993 ft 373 kts 261°
2026-04-23 20:46 37.89631 -120.25691 26733 ft 373 kts 260°
2026-04-23 20:46 37.89120 -120.28908 26483 ft 373 kts 260°
2026-04-23 20:46 37.88608 -120.32129 26232 ft 373 kts 260°
2026-04-23 20:47 37.88090 -120.35350 25982 ft 374 kts 260°
2026-04-23 20:47 37.87557 -120.38568 25741 ft 374 kts 259°
2026-04-23 20:47 37.87016 -120.41787 25493 ft 374 kts 259°
2026-04-23 20:47 37.86476 -120.45000 25252 ft 373 kts 259°
2026-04-23 20:48 37.85939 -120.48193 25014 ft 368 kts 259°
2026-04-23 20:48 37.85410 -120.51337 24645 ft 364 kts 259°
2026-04-23 20:48 37.84883 -120.54457 24229 ft 362 kts 259°
2026-04-23 20:48 37.84356 -120.57572 23807 ft 361 kts 259°
2026-04-23 20:49 37.83833 -120.60669 23333 ft 360 kts 259°
2026-04-23 20:49 37.83310 -120.63753 22884 ft 358 kts 259°
2026-04-23 20:49 37.82788 -120.66822 22449 ft 355 kts 259°
2026-04-23 20:49 37.82271 -120.69867 22031 ft 353 kts 259°
2026-04-23 20:50 37.81756 -120.72901 21590 ft 352 kts 259°
2026-04-23 20:50 37.81238 -120.75935 21032 ft 354 kts 259°
2026-04-23 20:50 37.80717 -120.78975 20561 ft 354 kts 259°
2026-04-23 20:50 37.80196 -120.82016 20131 ft 353 kts 259°
2026-04-23 20:51 37.79684 -120.85000 20021 ft 342 kts 259°
2026-04-23 20:51 37.79181 -120.87908 19678 ft 339 kts 259°
2026-04-23 20:51 37.78675 -120.90827 19239 ft 340 kts 259°
2026-04-23 20:51 37.78168 -120.93746 18828 ft 340 kts 259°
2026-04-23 20:52 37.77660 -120.96659 18417 ft 340 kts 260°
2026-04-23 20:52 37.77324 -120.98591 18111 ft 339 kts 259°
2026-04-23 20:52 37.76815 -121.01493 17694 ft 338 kts 259°
2026-04-23 20:52 37.76304 -121.04386 17271 ft 336 kts 259°
2026-04-23 20:53 37.75804 -121.07263 16882 ft 334 kts 259°
2026-04-23 20:53 37.75303 -121.10138 16494 ft 336 kts 259°
2026-04-23 20:53 37.74803 -121.13026 16093 ft 336 kts 259°
2026-04-23 20:53 37.74303 -121.15902 15687 ft 335 kts 259°
2026-04-23 20:54 37.73802 -121.18770 15295 ft 333 kts 259°
2026-04-23 20:54 37.73305 -121.21614 14900 ft 331 kts 259°
2026-04-23 20:54 37.72809 -121.24447 14476 ft 329 kts 259°
2026-04-23 20:54 37.72316 -121.27264 14097 ft 328 kts 259°
2026-04-23 20:55 37.71824 -121.30067 13685 ft 326 kts 260°
2026-04-23 20:55 37.71292 -121.32847 13240 ft 326 kts 256°
2026-04-23 20:55 37.70604 -121.35557 12893 ft 323 kts 253°
2026-04-23 20:55 37.69880 -121.38229 12517 ft 320 kts 253°
2026-04-23 20:56 37.69156 -121.40876 12133 ft 318 kts 253°
2026-04-23 20:56 37.68437 -121.43515 11753 ft 316 kts 252°
2026-04-23 20:56 37.67726 -121.46124 11370 ft 314 kts 253°
2026-04-23 20:56 37.67018 -121.48725 11001 ft 312 kts 253°
2026-04-23 20:57 37.66314 -121.51306 10622 ft 310 kts 253°
2026-04-23 20:57 37.65616 -121.53865 10270 ft 307 kts 253°
2026-04-23 20:57 37.64934 -121.56372 10074 ft 297 kts 253°
2026-04-23 20:57 37.64265 -121.58829 9619 ft 296 kts 253°
2026-04-23 20:58 37.63599 -121.61268 9304 ft 291 kts 253°
2026-04-23 20:58 37.62953 -121.63645 8984 ft 281 kts 253°
2026-04-23 20:58 37.62327 -121.65935 8647 ft 272 kts 253°
2026-04-23 20:58 37.61737 -121.68162 8322 ft 263 kts 257°
2026-04-23 20:59 37.61447 -121.70377 8110 ft 249 kts 266°
2026-04-23 20:59 37.61294 -121.72509 7882 ft 241 kts 266°
2026-04-23 20:59 37.61160 -121.74592 7701 ft 235 kts 267°
2026-04-23 20:59 37.61033 -121.76597 7518 ft 225 kts 267°
2026-04-23 21:00 37.60905 -121.78560 7112 ft 226 kts 266°
2026-04-23 21:00 37.60773 -121.80530 6704 ft 225 kts 267°
2026-04-23 21:00 37.60698 -121.82502 6268 ft 225 kts 271°
2026-04-23 21:00 37.60703 -121.84468 5895 ft 222 kts 273°
2026-04-23 21:01 37.60718 -121.86390 5668 ft 217 kts 272°
2026-04-23 21:01 37.60731 -121.88236 5462 ft 204 kts 272°
2026-04-23 21:01 37.60741 -121.89962 5342 ft 190 kts 272°
2026-04-23 21:01 37.60751 -121.91618 4993 ft 189 kts 272°
2026-04-23 21:02 37.60761 -121.93286 4600 ft 191 kts 272°
2026-04-23 21:02 37.60744 -121.94961 4242 ft 190 kts 270°
2026-04-23 21:02 37.60714 -121.96622 3875 ft 189 kts 269°
2026-04-23 21:02 37.60675 -121.98270 3538 ft 188 kts 269°
2026-04-23 21:03 37.60632 -121.99909 3207 ft 186 kts 269°
2026-04-23 21:03 37.60604 -122.01524 2975 ft 182 kts 272°
2026-04-23 21:03 37.60720 -122.03114 2964 ft 182 kts 278°
2026-04-23 21:03 37.60907 -122.04614 2929 ft 163 kts 282°
2026-04-23 21:04 37.61152 -122.05904 2928 ft 140 kts 286°
2026-04-23 21:04 37.61449 -122.07048 2949 ft 136 kts 290°
2026-04-23 21:04 37.61817 -122.08165 2949 ft 140 kts 295°
2026-04-23 21:04 37.62254 -122.09268 2816 ft 144 kts 298°
2026-04-23 21:05 37.62826 -122.10359 2275 ft 152 kts 307°
2026-04-23 21:05 37.63469 -122.11358 1992 ft 140 kts 307°
2026-04-23 21:05 37.64063 -122.12290 1868 ft 135 kts 308°
2026-04-23 21:05 37.64667 -122.13202 1710 ft 136 kts 307°
2026-04-23 21:06 37.65276 -122.14107 1513 ft 134 kts 309°
2026-04-23 21:06 37.65882 -122.14993 1344 ft 133 kts 309°
2026-04-23 21:06 37.66503 -122.15891 1101 ft 138 kts 308°
2026-04-23 21:06 37.67115 -122.16819 922 ft 137 kts 308°
2026-04-23 21:07 37.67722 -122.17732 885 ft 137 kts 307°
2026-04-23 21:07 37.68318 -122.18675 666 ft 138 kts 307°
2026-04-23 21:07 37.68925 -122.19595 352 ft 137 kts 308°
2026-04-23 21:07 37.69549 -122.20493 257 ft 138 kts 308°
2026-04-23 21:08 37.70127 -122.21456 67 ft 136 kts 308°
2026-04-23 21:08 37.70737 -122.22289 16 ft 117 kts 306°
2026-04-23 21:08 37.71104 -122.22881 16 ft 57 kts 309°
2026-04-23 21:08 37.71278 -122.23075 16 ft 15 kts 330°
2026-04-23 21:09 37.71372 -122.23123 15 ft 14 kts 345°
2026-04-23 21:09 37.71465 -122.23140 15 ft 13 kts 357°
2026-04-23 21:09 37.71516 -122.23108 15 ft 6 kts 84°
2026-04-23 21:09 37.71506 -122.23060 15 ft 9 kts 118°
2026-04-23 21:10 37.71403 -122.22919 15 ft 26 kts 132°
2026-04-23 21:10 37.71288 -122.22752 16 ft 24 kts 132°
2026-04-23 21:10 37.71199 -122.22592 16 ft 21 kts 114°
2026-04-23 21:10 37.71115 -122.22473 16 ft 17 kts 107°
2026-04-23 21:11 37.71163 -122.22368 16 ft 13 kts 34°
2026-04-23 21:11 37.71233 -122.22305 16 ft 11 kts 39°
2026-04-23 21:11 37.71285 -122.22242 15 ft 10 kts 40°
2026-04-23 21:11 37.71330 -122.22188 16 ft 8 kts 50°
2026-04-23 21:12 37.71374 -122.22129 15 ft 18 kts 46°
2026-04-23 21:12 37.71494 -122.21965 15 ft 26 kts 54°
2026-04-23 21:12 37.71557 -122.21817 15 ft 12 kts 120°
2026-04-23 21:12 37.71497 -122.21777 15 ft 8 kts 145°
2026-04-23 21:13 37.71486 -122.21720 17 ft 6 kts 74°
2026-04-23 21:13 37.71506 -122.21684 15 ft 5 kts 48°
2026-04-23 21:13 37.71523 -122.21660 15 ft 1 kts 49°
2026-04-23 21:13 37.71526 -122.21656 15 ft 0 kts 48°
2026-04-23 21:14 37.71527 -122.21654 15 ft 0 kts 49°
2026-04-23 21:14 37.71528 -122.21652 15 ft 1 kts 48°
2026-04-23 21:14 37.71531 -122.21649 15 ft 1 kts 48°
2026-04-23 21:14 37.71531 -122.21648 15 ft 0 kts 48°